Regional Weather Roundup
Issued by NWS

Home | Current Version | Previous Version | Text Only | Print | Product List | Glossary On
Versions: 1 2 3 4 5 6 7 8 9 10 11 12 13 14 15 16 17 18 19 20 21 22 23 24 25 26 27 28 29 30 31 32 33 34 35 36 37 38 39 40 41 42 43 44 45 46 47 48 49 50
000
ASUS43 KTOP 252259
RWRKS

WEATHER ROUNDUP FOR KANSAS
NATIONAL WEATHER SERVICE GOODLAND KS
600 PM CDT MON SEP 25 2017

NOTE:  "FAIR" INDICATES FEW OR NO CLOUDS BELOW 12,000 FEET WITH NO
SIGNIFICANT WEATHER AND/OR OBSTRUCTIONS TO VISIBILITY.

KSZ001>006-013>018-027>032-041>047-260000-
NORTHWEST KANSAS

CITY           SKY/WX    TMP DP  RH WIND       PRES   REMARKS
GOODLAND       CLOUDY    49  48  97 N13       30.03F
HAYS           CLOUDY    56  54  93 N9        29.98R FOG
HILL CITY      CLOUDY    55  54  96 N9        30.00R FOG
RUSSELL        LGT RAIN  57  56  96 N10       29.95R FOG
$$

KSZ061>065-074>080-084>089-260000-
SOUTHWEST KANSAS

CITY           SKY/WX    TMP DP  RH WIND       PRES   REMARKS
DODGE CITY     LGT RAIN  56  55  97 N12       29.98R
ELKHART          N/A     54  55 100 N10         N/A
GARDEN CITY    LGT RAIN  54  53  97 E13       29.93F
GREAT BEND     LGT RAIN  58  57  97 N9        29.97R
LIBERAL        CLOUDY    56  54  93 NE16      29.93R
$$

KSZ066>073-081>083-090>101-260000-
SOUTHEAST KANSAS

CITY           SKY/WX    TMP DP  RH WIND       PRES   REMARKS
CHANUTE        PTSUNNY   82  66  58 SE7       29.87R
COFFEYVILLE    MOSUNNY   82  66  58 S6        29.85S
HUTCHINSON     HVY RAIN  66  63  90 E10       29.92R FOG
NEWTON         LGT RAIN  65  63  93 W9        29.94R
PARSONS        CLOUDY    82  66  58 CALM      29.87S
WICHITA INTL   HVY RAIN  65  65 100 NW8       29.93S FOG
WICHITA JABRA  RAIN      65  65 100 NW5       29.93R FOG
WICHITA MCCONL HVY RAIN  66  64  94 N7        29.92R FOG
WINFIELD       HVY RAIN  68  68 100 NW10      29.91F VSB 3/4
$$

KSZ007>012-019>026-033>040-048>060-102>105-260000-
NORTHEAST KANSAS

CITY           SKY/WX    TMP DP  RH WIND       PRES   REMARKS
CONCORDIA      LGT RAIN  61  61 100 NW8       29.93R
EMPORIA        CLOUDY    68  66  93 NW9       29.90R
LAWRENCE       MOSUNNY   84  66  54 SE12      29.85S
MANHATTAN      LGT RAIN  67  64  90 E7        29.90S
OLATHE IND     SUNNY     83  65  54 S8        29.87S
OLATHE EXE     SUNNY     82  66  58 S10       29.87S
SALINA         LGT RAIN  68  65  90 W6        29.93R
TOPEKA BILLARD MOSUNNY   74  67  78 NW6       29.87R
TOPEKA FORBES  CLOUDY    75  67  76 N8        29.87R
$$



USA.gov is the U.S. government's official web portal to all federal, state and local government web resources and services.